This is the latest recevied weather packets stored in our database for station/object HARMALA. If no packets are shown the sender has not sent any weather packets the latest 10 day(s).
| Time | Temp. | Humidity | Pressure | Rain* | Wind** | Luminosity | Snow |
|---|---|---|---|---|---|---|---|
| 1777975638 | 8.33° C | 48% | 1002.4 hPa | 0 mm | - | - | - |
| 1777974438 | 7.78° C | 60% | 1002.3 hPa | 0 mm | - | - | - |
| 1777973238 | 6.11° C | 72% | 1002.5 hPa | 0 mm | - | - | - |
| 1777972038 | 7.22° C | 65% | 1002.1 hPa | 0 mm | - | - | - |
| 1777970839 | 6.67° C | 70% | 1002 hPa | 0 mm | - | - | - |
| 1777969638 | 5.56° C | 73% | 1002 hPa | 0 mm | - | - | - |
| 1777968438 | 5° C | 77% | 1001.7 hPa | 0 mm | - | - | - |
| 1777967238 | 4.44° C | 83% | 1001.7 hPa | 0 mm | - | - | - |
| 1777966038 | 4.44° C | 82% | 1001.3 hPa | 0 mm | - | - | - |
| 1777964838 | 4.44° C | 86% | 1001 hPa | 0 mm | - | - | - |
| 1777963637 | 4.44° C | 89% | 1000.6 hPa | 0 mm | - | - | - |
| 1777962437 | 3.89° C | 89% | 1000.4 hPa | 0 mm | - | - | - |
| 1777961238 | 3.33° C | 91% | 1000.3 hPa | 0 mm | - | - | - |
| 1777960037 | 3.33° C | 91% | 1000.1 hPa | 0 mm | - | - | - |
| 1777958837 | 3.33° C | 91% | 1000.1 hPa | 0 mm | - | - | - |
| 1777957637 | 3.33° C | 91% | 999.7 hPa | 0 mm | - | - | - |
| 1777956437 | 4.44° C | 90% | 999.4 hPa | 1.02 mm | - | - | - |
| 1777955237 | 4.44° C | 89% | 999 hPa | 1.02 mm | - | - | - |
| 1777954037 | 4.44° C | 94% | 999.1 hPa | 1.02 mm | - | - | - |
| 1777952837 | 5° C | 95% | 999.2 hPa | 0.25 mm | - | - | - |
| 1777951637 | 5° C | 94% | 999.1 hPa | 0.25 mm | - | - | - |
| 1777950437 | 5.56° C | 95% | 999.1 hPa | 0.25 mm | - | - | - |
| 1777949237 | 5.56° C | 97% | 999.3 hPa | 0 mm | - | - | - |
| 1777948037 | 5.56° C | 96% | 998.9 hPa | 0 mm | - | - | - |
| 1777946837 | 5.56° C | 96% | 998.9 hPa | 0 mm | - | - | - |
* Rain latest hour (hover to see other rain measurements)
** Current wind speed in m/s (hover to see current wind gust speed)